Location: Kosice
(0.0000°N, 21.2500°E)
Time: 06:04:52
(UTC+01:00)

Cosmos 1939 Rocket - Pass Details

Date: 24 January 2021
Orbit: 531 x 585 km, 97.4° (Epoch: 04 March)

Event Time Altitude Azimuth Distance (km) Brightness Sun altitude
Rises 18:18:57 0° 180° (S) 2,803 6.7 -7.5°
Reaches altitude 10° 18:21:11 10° 187° (S) 1,903 5.9 -8.0°
Maximum altitude 18:25:07 43° 259° (WSW) 819 4.3 -9.0°
Drops below altitude 10° 18:29:02 10° 331° (NNW) 1,892 5.7 -9.9°
Sets 18:31:15 0° 338° (NNW) 2,784 6.5 -10.4°
